Other Public Products
Issued by NWS Grand Forks, ND

Home | Current Version | Previous Version | Graphics & Text | Print | Product List | Glossary On
Versions: 1 2 3 4 5 6 7 8 9 10 11 12 13 14 15 16 17 18 19 20 21 22 23 24 25 26 27 28 29 30 31 32 33 34 35 36 37 38 39 40 41 42 43 44 45 46 47 48 49 50
000
FPUS83 KFGF 031731
OPUFGF
PRAIRIE TO PINES WEATHER ROUNDUP
NATIONAL WEATHER SERVICE EASTERN NORTH DAKOTA/GRAND FORKS ND
1200 PM CDT MON AUG 03 2015

 **SATELLITE DATA USED TO AUGMENT SKY COVER AT AUTOMATED STATIONS**
 *****  WEATHER ACROSS EASTERN NORTH DAKOTA  *****

CITY           SKY/WX    TMP DP  RH WIND       PRES   REMARKS
GRAND FORKS    MOSUNNY   72  51  47 NW15G21   29.94S
GRAND FORKS AF SUNNY     72  52  48 N16       29.95S
GRAND CITY NWS   N/A     70 N/A N/A NW7         N/A
BUXTON         NOT AVBL
DEVILS LAKE    SUNNY     72  45  37 N10       29.98S
FARGO          SUNNY     76  46  34 NW14      29.95R
WAHPETON ARPT  SUNNY     73  45  35 NW14G20   29.96S
$$

 *****  WEATHER ACROSS CENTRAL AND WESTERN NORTH DAKOTA  *****

CITY           SKY/WX    TMP DP  RH WIND       PRES   REMARKS
JAMESTOWN      SUNNY     72  47  40 NW12      30.00S
BISMARCK       SUNNY     76  50  40 W8        30.03F
MINOT          MOSUNNY   73  46  38 CALM      30.01F
MINOT AFB      SUNNY     79  46  31 NE2       30.01S
GARRISON         N/A     72  50  45 E3        30.03S
WILLISTON      SUNNY     74  48  39 SW5       30.04S
DICKINSON      SUNNY     74  48  39 VRB3      30.04S
HETTINGER      SUNNY     76  50  40 CALM      30.06S
$$

 *****  OTHER OBSERVATIONS NORTHEAST NORTH DAKOTA  *****

CITY           SKY/WX    TMP DP  RH WIND       PRES   REMARKS
WALHALLA       FAIR      72  54  53 MISG      29.94F
LANGDON        FAIR      73  46  38 N15       29.97F
CAVALIER       FAIR      70  50  49 N13G21    29.94S
GRAFTON        FAIR      72  52  49 NW13G18   29.95S
CANDO          FAIR      73  46  38 N12       29.99S
FORT TOTTEN    NOT AVBL
ROLLA            N/A     68  45  42 NW12G20   30.00S
RUGBY          NOT AVBL
 ***** THE ABOVE OBSERVATIONS ARE NON NWS ARE NOT QUALITY
        CONTROLLED AND MAY MIS-REPORT RAIN FOR SNOW...
$$

 *****  OTHER OBSERVATIONS SOUTHEAST NORTH DAKOTA *****

CITY           SKY/WX    TMP DP  RH WIND       PRES   REMARKS
COOPERSTOWN    NOT AVBL
VALLEY CITY    FAIR      73  46  38 N10G21    29.98F
OAKES            N/A     75  54  46 NW10G18   29.99F
GWINNER        FAIR      75  52  43 NW15      29.99F
SHEYENNE NWR     N/A     75  48  38 NW12      29.95
BUFFALO        NOT AVBL
WYNDMERE         N/A     75  52  43 NW12        N/A
 ***** THE ABOVE OBSERVATIONS ARE NON NWS ARE NOT QUALITY
       CONTROLLED AND MAY MIS-REPORT RAIN FOR SNOW...
$$

  *****  WEATHER ACROSS NORTHERN MINNESOTA  *****

CITY           SKY/WX    TMP DP  RH WIND       PRES   REMARKS
FLAG ISLAND    CLOUDY    61  54  77 NW15      29.86R
WARROAD        CLOUDY    63  54  72 W10G17    29.90R
ROSEAU         MOSUNNY   66  55  68 NW14      29.89S
HALLOCK        MOSUNNY   70  48  46 NW15G21   29.93R
THF RVR FALLS  MOSUNNY   68  50  52 NW17      29.93S
HALSTAD        NOT AVBL
FOSSTON        PTSUNNY   70  48  46 NW9G25    29.93F
BAUDETTE       CLOUDY    62  52  69 NW15      29.87R
WASKISH        CLOUDY    64  54  68 W10       29.88S
CROOKSTON      SUNNY     72  52  49 NW18G26   29.94F
$$
  *****  WEATHER ACROSS CENTRAL AND WEST MINNESOTA  *****

CITY           SKY/WX    TMP DP  RH WIND       PRES   REMARKS
BEMIDJI        MOSUNNY   69  49  50 NW20G29   29.90S
PARK RAPIDS    SUNNY     73  46  38 NW18      29.92S
WADENA         SUNNY     72  46  40 W10G17    29.94S
DETROIT LAKES  SUNNY     72  43  35 NW16G22   29.96S
MOORHEAD       SUNNY     73  48  40 NW14      29.95F
FERGUS FALLS   SUNNY     73  54  49 NW13G18   29.95S
ELBOW LAKE     FAIR      73  54  52 NW13      29.96S
MORRIS MN      SUNNY     73  54  49 NW13      29.96S
STAPLES        SUNNY     72  43  35 NW15      29.93S
WHEATON        SUNNY     73  54  49 W13G22    29.98F
$$
  *****  WEATHER ELSEWHERE ACROSS MINNESOTA  *****

CITY           SKY/WX    TMP DP  RH WIND       PRES   REMARKS
DULUTH         PTSUNNY   65  51  60 NW16G23   29.86R
INTRNTL FALLS  LGT RAIN  62  56  80 NW12G24   29.84R
ELY            CLOUDY    63  50  63 W10G17    29.82R
CLOQUET        CLOUDY    66  48  52 NW13G21   29.87S
BRAINERD       MOSUNNY   72  46  39 NW18G28   29.91F
HIBBING        CLOUDY    63  52  67 NW9       29.86R
ALEXANDRIA     SUNNY     73  50  44 NW16      29.97S
SAINT CLOUD    SUNNY     74  49  41 NW8       29.93R
MINNEAPOLIS    SUNNY     76  50  40 NW15      29.92R
$$

  *****  WEATHER ACROSS SOUTH DAKOTA  *****

CITY           SKY/WX    TMP DP  RH WIND       PRES   REMARKS
SIOUX FALLS    MOSUNNY   78  57  48 NW3       30.00S
BROOKINGS      SUNNY     73  54  49 W12       30.01S
WATERTOWN      SUNNY     74  52  46 W9        30.00S
HURON          SUNNY     78  55  44 W5        30.00R
SISSETON         N/A     76  50  40 NW14G21   29.97S
ABERDEEN       SUNNY     77  50  38 VRB5      30.00S
MITCHELL       SUNNY     78  60  53 CALM      30.00S
PIERRE         SUNNY     79  53  40 VRB5      30.01S
MOBRIDGE       SUNNY     78  53  41 NW7       30.00S
RAPID CITY     SUNNY     76  59  55 SE8       30.05S
$$

  *****  SOME WEATHER IN NEARBY STATES *****

CITY           SKY/WX    TMP DP  RH WIND       PRES   REMARKS
GLASGOW MT     SUNNY     78  47  33 SE12      30.00F
GREAT FALLS MT SUNNY     78  48  34 NE7       29.93F
CHEYENNE WY    PTSUNNY   83  43  24 S12G18    30.14S
SCOTTSBLUFF NE MOSUNNY   78  61  55 SE9       30.03S
OMAHA NE       CLOUDY    77  61  57 E7        29.99S
DES MOINES IA  MOSUNNY   80  53  39 CALM      29.97F
DAVENPORT IA   SUNNY     77  53  43 VRB7      29.94R
CHICAGO IL     MOSUNNY   79  54  41 NW12      29.86S
EAU CLAIRE WI  SUNNY     75  47  36 NW21G28   29.86S
LA CROSSE WI   SUNNY     78  48  34 NW15      29.89R
$$

  *****  SOME NATIONAL WEATHER *****

CITY           SKY/WX    TMP DP  RH WIND       PRES   REMARKS
LA GUARDIA NY  MOSUNNY   88  59  37 SW16G25   29.81F
RALEIGH NC     PTSUNNY   89  69  51 S7        29.94F HX  93
ATLANTA GA     PTSUNNY   87  69  54 N3        29.95F HX  91
NEW ORLEANS LA PTSUNNY   94  69  44 NE7       29.93R HX  99
OKLAHOMA CITY  CLOUDY    80  67  64 S6        29.98R
ALBUQUERQUE NM MOSUNNY   75  57  53 SW5       30.20S
SALT LAKE CITY RAIN      62  60  93 N10       30.11R
LOS ANGELES CA MOSUNNY   76  64  66 VRB3      29.91S
BOISE ID       CLOUDY    83  46  27 NE6       29.93R
SEATTLE WA     PTSUNNY   65  53  65 SW5       29.94F
$$

*** WEATHER ACROSS MANITOBA...SASKATCHEWAN AND ONTARIO ***
                ***ONTARIO***

CITY           SKY/WX    TMP DP  RH WIND       PRES   REMARKS
GERALDTON      LGT RAIN  57  50  77 NW12G20   29.65
THUNDER BAY    PTSUNNY   66  54  63 W16       29.72R
SIOUX LOOKOUT  LGT RAIN  57  54  88 NW9       29.77S
TORONTO        MOSUNNY   79  57  47 W13G23    29.73R
BIG TROUT LK   CLOUDY    54  45  71 NW10G17   29.72S
PICKLE LAKE    LGT RAIN  50  45  81 N6        29.73R
DRYDEN         CLOUDY    61  50  67 NW12      29.80S
KENORA         CLOUDY    59  52  77 NW13      29.85R
$$
                *** MANITOBA***

CITY           SKY/WX    TMP DP  RH WIND       PRES   REMARKS
BRANDON        MOSUNNY   75  48  38 N13G22    29.97S
DAUPHIN        SUNNY     70  54  56 NW5       29.93F
ISLAND LAKE    PTSUNNY   54  48  82 N3G20     29.84R
PILOT MOUND      N/A     68  48  49 NW10G18     N/A
THE PAS        MOSUNNY   68  48  49 N7        29.93R
THOMPSON       LGT RAIN  55  52  88 NW8       29.90R
WINNIPEG       MOSUNNY   70  52  52 N14G25    29.91F
LYNN LAKE      CLOUDY    57  48  72 N10       29.97R
CHURCHILL      CLOUDY    50  46  87 N10       29.90R
GILLAM         CLOUDY    50  45  81 NE12      29.88R
$$
                ***SASKATCHEWAN***

CITY           SKY/WX    TMP DP  RH WIND       PRES   REMARKS
ESTEVAN        PTSUNNY   73  52  46 VRB3      30.03S
KINDERSLEY     PTSUNNY   77  54  44 SE16      29.98F
LLOYDMINSTER   PTSUNNY   70  55  60 SE13      29.96F
PRINCE ALBERT  MOSUNNY   75  52  43 N5        29.98F
REGINA         PTSUNNY   77  52  41 NW3       30.03S



USA.gov is the U.S. government's official web portal to all federal, state and local government web resources and services.